Regional Weather Roundup
Issued by NWS

Home | Current Version | Previous Version | Text Only | Print | Product List | Glossary Off
Versions: 1 2 3 4 5 6 7 8 9 10 11 12 13 14 15 16 17 18 19 20 21 22 23 24 25 26 27 28 29 30 31 32 33 34 35 36 37 38 39 40 41 42 43 44 45 46 47 48 49 50

000
ASUS43 KMPX 201510
RWRMN
WEATHER ROUNDUP FOR MINNESOTA
NATIONAL WEATHER SERVICE TWIN CITIES/CHANHASSEN MN
1000 AM CDT SAT SEP 20 2014


NOTE: "FAIR" INDICATES FEW OR NO CLOUDS BELOW 12,000 FEET WITH NO
SIGNIFICANT WEATHER AND/OR OBSTRUCTIONS TO VISIBILITY. N/A MEANS
CURRENT SKY AND/OR WEATHER CONDITIONS ARE NOT AVAILABLE.

MNZ060>063-068>070-201600-
   Twin Cities Metro

CITY           SKY/WX    TMP DP  RH WIND       PRES   REMARKS
TWIN CITIES    PTSUNNY   68  58  70 W14       29.80R
ST PAUL        MOSUNNY   67  59  75 NW9       29.79R
CRYSTAL        MOSUNNY   68  58  70 NW12      29.79R
BLAINE         MOSUNNY   70  63  78 W8        29.79
LAKEVILLE      MOSUNNY   66  59  77 NW9       29.81R
EDEN PRAIRIE   MOSUNNY   67  59  75 W13       29.80R
SOUTH ST PAUL  MOSUNNY   67  57  70 NW10      29.79R
LAKE ELMO      CLOUDY    64  59  82 NW10      29.79S
$$
MNZ001>005-007-008-013>017-022>024-027-028-201600-
   Northwest Minnesota

CITY           SKY/WX    TMP DP  RH WIND       PRES   REMARKS
BEMIDJI        CLOUDY    57  52  83 NW13      29.79S
HALLOCK        PTSUNNY   57  54  88 S5        29.78S
ROSEAU         CLOUDY    50  45  81 W7        29.78S
WARROAD        PTSUNNY   50  46  87 W7        29.77R
THIEF RVR FALL CLOUDY    55  52  88 W5        29.80S
CROOKSTON      MOSUNNY   57  52  82 CALM      29.81S
FOSSTON        CLOUDY    57  52  82 W7        29.81S
DETROIT LAKES  CLOUDY    57  54  88 W5        29.84S
MOORHEAD       SUNNY     59  57  94 SW3       29.84S
PARK RAPIDS    CLOUDY    59  54  83 NW13      29.81S
MAHNOMEN       CLOUDY    56  53  89 W6        29.82S
$$
MNZ006-009>011-018-025>026-201600-
   North Central Minnesota

CITY           SKY/WX    TMP DP  RH WIND       PRES   REMARKS
BAUDETTE       MOSUNNY   54  48  80 NW7       29.75S
FLAG ISLAND    CLOUDY    50  46  87 W13       29.74R
INTL FALLS     CLOUDY    53  51  93 W7        29.73R FOG
WASKISH        MOSUNNY   55  48  76 W8        29.77S
BIG FORK       MOSUNNY   55  46  71 W7        29.77S
LONGVILLE      MOSUNNY   61  52  72 NW7G17    29.79R
GRAND RAPIDS   MOSUNNY   57  46  67 NW17G25   29.77S
CRANE LAKE     CLOUDY    52  52 100 W6        29.73R FOG
ORR            CLOUDY    52  48  87 W7        29.73R
COOK           CLOUDY    54  48  82 W14       29.75R
WALKER         CLOUDY    58  51  80 W10G16    29.79S
$$
MNZ012-019>021-037-201600-
   Northeast Minnesota

CITY           SKY/WX    TMP DP  RH WIND       PRES   REMARKS
DULUTH         CLOUDY    62  53  72 NW16G23   29.72S
ELY            CLOUDY    55  54  94 W7        29.70R FOG
HIBBING        CLOUDY    59  51  75 NW14      29.74S
EVELETH        CLOUDY    54  52  94 W10G18    29.75R
DULUTH HARBOR  CLOUDY    63  55  77 W13       29.72R
TWO HARBORS    PTSUNNY   63  54  72 NW9G18    29.67R
SILVER BAY     SUNNY     64  59  82 W9G18     29.65R
GRAND MARAIS     N/A     66  59  78 VRB6      29.59R
G MARAIS ARPRT MOSUNNY   61  54  77 NW14G22   29.63R
$$
MNZ029>031-032-039>041-046>048-054>057-064-201600-
   West Central Minnesota

CITY           SKY/WX    TMP DP  RH WIND       PRES   REMARKS
FERGUS FALLS   CLOUDY    57  54  88 W6        29.86R
WHEATON        SUNNY     63  55  77 W6        29.88R
MORRIS         SUNNY     63  57  82 NW6       29.85S
ALEXANDRIA     PTSUNNY   58  55  90 NW9       29.86R
ELBOW LAKE     CLOUDY    57  55  92 W5        29.86R
WADENA         CLOUDY    57  54  88 NW6       29.83S
GLENWOOD       MOSUNNY   61  55  82 W7        29.86R
APPLETON       SUNNY     64  57  77 NW8       29.86S
BENSON         MOSUNNY   63  57  82 N8        29.86R
ORTONVILLE     SUNNY     64  55  72 W5        29.87S
MADISON        SUNNY     66  61  82 NW8       29.88R
WILLMAR        PTSUNNY   61  55  82 NW10      29.87S
$$
MNZ033>034-036-042>043-049>051-058-059-201600-
   Central Minnesota

CITY           SKY/WX    TMP DP  RH WIND       PRES   REMARKS
ST CLOUD       SUNNY     66  57  72 NW16      29.81R
SAUK CENTRE    FAIR      61  56  86 NW10G16   29.85R
PAYNESVILLE    PTSUNNY   58  56  93 W10       29.85R
AITKIN         CLOUDY    61  54  77 NW6       29.77S
PINE RIVER     CLOUDY    57  52  82 NW7       29.84R
BRAINERD       CLOUDY    58  53  84 NW9       29.82R
STAPLES        CLOUDY    57  54  88 NW12      29.83R
LONG PRAIRIE   PTSUNNY   59  54  82 W9        29.84R
LITTLE FALLS   PTSUNNY   61  54  77 W9        29.82S
LITCHFIELD     SUNNY     64  61  88 W12G17    29.84R
BUFFALO        SUNNY     65  57  74 W10G16    29.82R
MAPLE LAKE     SUNNY     65  60  81 W10       29.83R
$$
MNZ037-044-045-052-053-201600-
   East Central Minnesota

CITY           SKY/WX    TMP DP  RH WIND       PRES   REMARKS
PRINCETON      MOSUNNY   64  59  82 W9        29.80R
MORA           MOSUNNY   63  54  72 NW13G20   29.80R
CAMBRIDGE      SUNNY     66  55  68 NW12G17   29.77R
RUSH CITY      SUNNY     65  58  79 W3        29.77R
MOOSE LAKE     CLOUDY    61  54  77 NW9       29.74R
HINCKLEY       FAIR      64  57  77 NW12G17   29.77R
CLOQUET        CLOUDY    61  52  72 W17G28    29.74R
MCGREGOR       CLOUDY    57  52  82 NW10      29.78R
$$
MNZ071>073-080-081-089-090-097-098-201600-
   Southwest Minnesota

CITY           SKY/WX    TMP DP  RH WIND       PRES   REMARKS
MONTEVIDEO     SUNNY     66  61  82 NW6       29.88R
GRANITE FALLS  SUNNY     63  58  84 W8        29.89R
CANBY          SUNNY     66  58  74 NW8       29.90R
MARSHALL       SUNNY     66  55  68 NW9       29.88R
REDWOOD FALLS  SUNNY     67  59  75 NW10      29.86R
OLIVIA         MOSUNNY   63  55  77 NW8       29.85S
PIPESTONE      SUNNY     66  57  72 NW5       29.91S
WINDOM         MOSUNNY   68  59  73 W9        29.89R
WORTHINGTON    MOSUNNY   68  59  73 NW7       29.91R
JACKSON        PTSUNNY   68  59  73 W7        29.89S
TRACY          SUNNY     68  59  73 NW8       29.89R
SLAYTON        SUNNY     66  59  76 CALM      29.91R
$$
MNZ065>067-074>077-082>085-091>093-201600-
   South Central Minnesota

CITY           SKY/WX    TMP DP  RH WIND       PRES   REMARKS
MANKATO        CLOUDY    66  55  68 NW15      29.84R
NEW ULM        MOSUNNY   66  61  82 NW16      29.84S
ST JAMES       MOSUNNY   68  59  73 W10       29.87R
FAIRMONT       PTSUNNY   68  57  68 W9        29.87R
GLENCOE        SUNNY     65  57  73 W13       29.83R
FARIBAULT      PTSUNNY   72  57  60 NW8       29.82S
OWATONNA       PTSUNNY   66  61  82 W8        29.82S
WASECA         PTSUNNY   64  54  68 W9        29.85S
ALBERT LEA     CLOUDY    64  63  94 W8        29.83S
$$
MNZ078>079-086>088-094>096-201600-
   Southeast Minnesota

CITY           SKY/WX    TMP DP  RH WIND       PRES   REMARKS
ROCHESTER      CLOUDY    65  63  93 W12       29.82R
RED WING       MOSUNNY   72  61  68 W13       29.77R
STANTON        MOSUNNY   68  59  72 W12       29.80R
DODGE CENTER   CLOUDY    66  63  88 W13       29.81R
WINONA         CLOUDY    70  63  78 NW7       29.77S
AUSTIN         CLOUDY    64  63  94 SW7       29.83F
PRESTON        CLOUDY    64  65 100 SW13G18   29.81R
$$
ABBREVIATIONS USED IN REMARKS
   TC - TEMPERATURES IN CELSIUS
  WCI - WIND CHILL INDEX
   HX - HEAT INDEX
  VSB - VISIBILITY
$$


USA.gov is the U.S. government's official web portal to all federal, state and local government web resources and services.